DW2465 Weather Reports


time (UTC)temp
C
wind
direction
speed
KPH
gust
KPH
rain 1hr
cm
rain 24hr
cm
rain mn
cm
humidity
%
barometer
mb
20260901161536 26 298 0.0 0.0 0.00 0.00 0.00 62 1012.5
20260901160033 25 321 0.0 0.0 0.00 0.00 0.00 64 1012.4
20260901154545 25 321 0.0 0.0 0.00 0.00 0.00 64 1012.4
20260901153036 24 311 0.0 0.0 0.00 0.00 0.00 66 1012.4
20260901151523 23 275 0.0 0.0 0.00 0.00 0.00 66 1012.5
20260901150021 23 266 0.0 0.0 0.00 0.00 0.00 67 1012.5
20260901144521 23 270 0.0 0.0 0.00 0.00 0.00 68 1012.5
20260901143045 22 264 0.0 0.0 0.00 0.00 0.00 75 1012.6
20260901141541 21 264 0.0 0.0 0.00 0.00 0.00 76 1012.7
20260901140035 21 242 0.0 0.0 0.00 0.00 0.00 79 1012.7
20260901134535 20 232 0.0 0.0 0.00 0.00 0.00 83 1012.7
20260901133035 19 236 0.0 0.0 0.00 0.00 0.00 88 1012.9
20260901131534 18 238 0.0 0.0 0.00 0.00 0.00 90 1012.8
20260901130029 18 248 0.0 0.0 0.00 0.00 0.00 91 1012.5
20260901124529 18 248 0.0 0.0 0.00 0.00 0.00 93 1012.5
20260901123028 17 257 0.0 0.0 0.00 0.00 0.00 94 1012.6
20260901121535 17 256 0.0 0.0 0.00 0.00 0.00 94 1012.3
20260901120023 17 249 0.0 0.0 0.00 0.00 0.00 93 1012.2
20260901114524 17 246 0.0 0.0 0.00 0.00 0.00 93 1012.1
20260901113021 17 244 0.0 0.0 0.00 0.00 0.00 93 1011.9
20260901111520 17 221 0.0 0.0 0.00 0.00 0.00 93 1011.9
20260901110015 17 283 0.0 0.0 0.00 0.00 0.00 93 1011.7
20260901104526 17 286 0.0 0.0 0.00 0.00 0.00 93 1011.7
20260901103017 17 290 0.0 0.0 0.00 0.00 0.00 93 1011.3
20260901101514 17 290 0.0 0.0 0.00 0.00 0.00 93 1011.3
20260901100011 17 290 0.0 0.0 0.00 0.00 0.00 93 1011.3
20260901094513 18 290 0.0 0.0 0.00 0.00 0.00 93 1011.1
20260901093007 18 290 0.0 0.0 0.00 0.00 0.00 93 1011.0
20260901091512 18 290 0.0 0.0 0.00 0.00 0.00 93 1010.9
20260901090006 17 290 0.0 0.0 0.00 0.00 0.00 92 1011.0
20260901084506 18 290 0.0 0.0 0.00 0.00 0.00 92 1010.9
20260901083002 18 290 0.0 0.0 0.00 0.00 0.00 92 1011.2
20260901081501 18 290 0.0 0.0 0.00 0.00 0.00 91 1010.9
20260901080112 18 290 0.0 0.0 0.00 0.00 0.00 90 1010.9
20260901074528 18 290 0.0 0.0 0.00 0.00 0.00 90 1011.1
20260901073030 18 290 0.0 0.0 0.00 0.00 0.00 90 1011.1
20260901071524 18 290 0.0 0.0 0.00 0.00 0.00 89 1011.4
20260901070028 18 290 0.0 0.0 0.00 0.00 0.00 89 1011.4
20260901064524 18 290 0.0 0.0 0.00 0.00 0.00 88 1011.3
20260901063020 19 290 0.0 0.0 0.00 0.00 0.00 87 1011.5
20260901061515 20 290 0.0 0.0 0.00 0.00 0.00 85 1011.6
20260901060016 20 290 0.0 0.0 0.00 0.00 0.00 84 1011.5
20260901054509 20 290 0.0 0.0 0.00 0.00 0.00 82 1011.4
20260901053007 20 290 0.0 0.0 0.00 0.00 0.00 81 1011.3
20260901051501 21 298 0.0 0.0 0.00 0.00 0.00 80 1011.2
20260901050059 21 288 0.0 0.0 0.00 0.00 0.00 80 1010.8
20260901044558 21 289 0.0 0.0 0.00 0.00 0.00 80 1010.8
20260901043057 21 291 0.0 0.0 0.00 0.00 0.00 82 1010.7
20260901041554 20 246 0.0 0.0 0.00 0.00 0.00 83 1010.6
20260901040054 20 246 0.0 0.0 0.00 0.00 0.00 84 1010.7
20260901034553 20 242 0.0 0.0 0.00 0.00 0.00 84 1010.6
20260901033051 21 242 0.0 0.0 0.00 0.00 0.00 84 1010.7
20260901031527 21 242 0.0 0.0 0.00 0.00 0.00 82 1010.7
20260901030020 21 242 0.0 0.0 0.00 0.00 0.00 81 1010.4
20260901024517 22 242 0.0 0.0 0.00 0.00 0.00 80 1010.4
20260901023016 22 242 0.0 0.0 0.00 0.00 0.00 78 1010.3
20260901021528 22 240 0.0 0.0 0.00 0.00 0.00 77 1010.1
20260901020015 22 269 0.0 0.0 0.00 0.00 0.00 77 1010.1
20260901014511 23 269 0.0 0.0 0.00 0.00 0.00 75 1010.0
20260901013009 23 271 0.0 0.0 0.00 0.00 0.00 74 1009.7
20260901011511 24 275 0.0 0.0 0.00 0.00 0.00 73 1009.6
20260901010022 25 262 0.0 0.0 0.00 0.00 0.00 71 1009.6
20260901004505 25 263 0.0 0.0 0.00 0.00 0.00 68 1009.6
20260901003004 26 261 0.0 0.0 0.00 0.00 0.00 66 1009.4
20260901001504 26 253 0.0 0.0 0.00 0.00 0.00 65 1009.6
20260901000002 27 262 0.0 0.0 0.00 0.00 0.00 62 1009.5
20260831234600 27 258 0.0 0.0 0.00 0.00 0.00 60 1009.5
20260831233100 28 252 0.0 0.0 0.00 0.00 0.00 58 1009.4
20260831231612 28 252 0.0 0.0 0.00 0.00 0.00 54 1009.4
20260831230059 30 253 0.0 0.0 0.00 0.00 0.00 50 1009.4
20260831224555 28 272 0.0 0.0 0.00 0.00 0.00 51 1009.4
20260831223102 29 296 0.0 0.0 0.00 0.00 0.00 51 1009.3
20260831221558 28 261 0.0 0.0 0.00 0.00 0.00 53 1009.4
20260831220053 29 274 0.0 0.0 0.00 0.00 0.00 52 1009.0
20260831214521 30 284 0.0 0.0 0.00 0.00 0.00 50 1009.0
20260831213031 30 296 0.0 0.0 0.00 0.00 0.00 47 1008.8
20260831211517 30 288 0.0 0.0 0.00 0.00 0.00 47 1008.8
20260831210017 30 298 0.0 0.0 0.00 0.00 0.00 45 1008.8
20260831204517 30 312 0.0 0.0 0.00 0.00 0.00 47 1008.7
20260831203013 30 273 0.0 0.0 0.00 0.00 0.00 48 1008.7
20260831201511 30 9 0.0 0.0 0.00 0.00 0.00 48 1008.7
20260831200018 30 341 0.0 0.0 0.00 0.00 0.00 48 1008.7
20260831194510 30 332 0.0 0.0 0.00 0.00 0.00 47 1008.6
20260831193010 30 284 0.0 0.0 0.00 0.00 0.00 50 1008.7
20260831191501 29 316 0.0 0.0 0.00 0.00 0.00 54 1008.6
20260831190107 29 275 0.0 0.0 0.00 0.00 0.00 51 1008.5
20260831184600 29 304 0.0 0.0 0.00 0.00 0.00 54 1008.6
20260831183058 28 311 0.0 0.0 0.00 0.00 0.00 53 1008.6
20260831181556 28 331 0.0 0.0 0.00 0.00 0.00 60 1008.6
20260831180049 28 285 0.0 0.0 0.00 0.00 0.00 62 1008.7
20260831174548 28 269 0.0 0.0 0.00 0.00 0.00 65 1008.7
20260831173043 28 309 0.0 0.0 0.00 0.00 0.00 68 1008.8
20260831171544 27 348 0.0 0.0 0.00 0.00 0.00 72 1008.8
20260831170007 26 11 0.0 0.0 0.00 0.00 0.00 74 1008.9
20260831164503 26 306 0.0 0.0 0.00 0.00 0.00 78 1008.8
20260831163058 26 302 0.0 0.0 0.00 0.00 0.00 79 1008.8